Home   Weather   Ontario   Past weeks

Flag for USA Past Weather in Ontario, California, USA — Yesterday and Last 2 Weeks

Now
38 °F

Clear.


Feels Like: 34 °F
Forecast: 41 / 62 °F
Wind: 5 mph from North

Location: Ontario International Airport

Current Time: Jan 21, 2018 at 7:00:17 am

Latest Report: Jan 21, 2018 at 5:53 am


Visibility: 10 mi

Pressure: 30.22 "Hg

Humidity: 68%

Dew Point: 28 °F

Location of OntarioLocation

Past Weather in Ontario — Graph

°F

Ontario Temperature Yesterday

Maximum temperature yesterday: 60 °F (at 1:53 pm)
Minimum temperature yesterday: 47 °F (at 11:53 pm)
Average temperature yesterday: 52 °F

High & Low Weather Summary for the Past Weeks

 TemperatureHumidityPressure
High83 °F (Jan 13, 1:53 pm)100% (Jan 10, 4:00 am)30.26 "Hg (Jan 10, 4:00 am)
Low35 °F (Jan 21, 4:53 am)10% (Jan 14, 1:53 pm)29.67 "Hg (Jan 9, 5:53 am)
Average59 °F62%30.03 "Hg
* Reported Jan 6 4:53 am — Jan 21 4:53 am, Ontario. Weather by CustomWeather, © 2018

Note: Actual official high and low records may vary slightly from our data, if they occured in-between our weather recording intervals... More about our weather records

Advertising

Ontario Weather History for the Previous 24 Hours

Scroll right to see more
 ConditionsComfort  
Time TempWeatherWind HumidityBarometerVisibility
4:53 am
Sun, Jan 21
35 °FClear.No wind70%30.19 "Hg10 mi
3:53 am40 °FClear.5 mph60%30.19 "Hg10 mi
2:53 am43 °FClear.No wind53%30.19 "Hg10 mi
1:53 am39 °FClear.5 mph62%30.18 "Hg10 mi
12:53 am43 °FClear.3 mph53%30.17 "Hg10 mi
11:53 pm
Sat, Jan 20
47 °FClear.No wind41%30.16 "Hg10 mi
10:53 pm48 °FClear.No wind39%30.15 "Hg10 mi
9:53 pm48 °FPassing clouds.5 mph39%30.13 "Hg10 mi
8:53 pm50 °FClear.6 mph36%30.11 "Hg10 mi
7:53 pm51 °FPassing clouds.5 mph39%30.08 "Hg10 mi
6:53 pm52 °FPassing clouds.9 mph28%30.05 "Hg10 mi
5:53 pm56 °FPassing clouds.14 mph24%30.03 "Hg10 mi
4:53 pm59 °FScattered clouds.12 mph20%30.01 "Hg10 mi
3:53 pm60 °FScattered clouds.13 mph22%29.99 "Hg10 mi
2:53 pm60 °FScattered clouds.10 mph27%29.98 "Hg10 mi
1:53 pm60 °FScattered clouds.9 mph28%29.97 "Hg10 mi
12:53 pm59 °FBroken clouds.6 mph35%29.98 "Hg10 mi
11:53 am56 °FBroken clouds.8 mph51%30.00 "Hg10 mi
10:53 am54 °FScattered clouds.7 mph45%30.02 "Hg10 mi
9:53 am51 °FPartly sunny.3 mph54%30.02 "Hg10 mi
8:53 am50 °FBroken clouds.9 mph59%29.99 "Hg10 mi
7:53 am49 °FBroken clouds.7 mph86%29.97 "Hg10 mi
Weather by CustomWeather, © 2018

See weather overview